Regional Weather Roundup
Issued by NWS

Home | Current Version | Previous Version | Graphics & Text | Print | Product List | Glossary On
Versions: 1 2 3 4 5 6 7 8 9 10 11 12 13 14 15 16 17 18 19 20 21 22 23 24 25 26 27 28 29 30 31 32 33 34 35 36 37 38 39 40 41 42 43 44 45 46 47 48 49 50
000
ASUS43 KDMX 280307
RWRIA

WEATHER ROUNDUP FOR IOWA
NATIONAL WEATHER SERVICE DES MOINES IA
900 PM CST SAT DEC 27 2014

NOTE: "FAIR" INDICATES FEW OR NO CLOUDS BELOW 12,000 FEET WITH NO
SIGNIFICANT WEATHER AND/OR OBSTRUCTIONS TO VISIBILITY.

* - THESE STATIONS ARE NOT NWS STATIONS...THUS NOT UNDER NWS
QUALITY CONTROL.  THEY ALSO DO NOT REPORT WEATHER SUCH
AS PRECIPITATION OR FOG.

IAZ001>003-012>014-020>022-031>034-043>046-280400-
   NORTHWEST IOWA

CITY           SKY/WX    TMP DP  RH WIND       PRES   REMARKS
CARROLL *      CLEAR     16  10  79 W6        30.20F WCI   7
CHEROKEE *     CLEAR     10   9  92 SW5       30.18F WCI   2
DENISON *      CLEAR     14  12  92 SW3       30.19S
LE MARS *      CLEAR     10   9  92 S6        30.19S WCI   1
ORANGE CITY *  CLEAR     10   9  92 CALM      30.15F
SHELDON *      PTCLDY     9   7  92 CALM      30.15S
SIOUX CITY     CLEAR     10   6  84 S5        30.19F WCI   2
SPENCER        CLEAR     11   6  81 W7        30.16R WCI   0
STORM LAKE *   CLEAR     12   9  85 SW14      30.16F WCI  -3
$$

IAZ055>058-069>071-079>083-090>094-280400-
   SOUTHWEST IOWA

CITY           SKY/WX    TMP DP  RH WIND       PRES   REMARKS
ATLANTIC *     CLEAR     16  12  86 CALM      30.23S
AUDUBON *      CLEAR     18  10  73 CALM      30.21S
CLARINDA *     CLEAR     21  18  86 CALM      30.27S
COUNCIL BLFS * CLEAR     19  16  86 SW5       30.22S WCI  13
CRESTON *      CLEAR     18  16  93 W7        30.22R WCI   8
HARLAN  *      CLEAR     14  14 100 CALM      30.26S
LAMONI         CLEAR     21  18  88 W6        30.22S WCI  13
RED OAK *      CLEAR     18  14  86 NW6       30.24F WCI   9
SHENANDOAH *   CLEAR     21  18  86 CALM      30.26F
$$

IAZ047>049-059>061-072>074-084-280400-
   CENTRAL IOWA

CITY           SKY/WX    TMP DP  RH WIND       PRES   REMARKS
AMES           CLEAR     20  14  77 NW7       30.21F WCI  11
ANKENY *       CLEAR     21  16  79 NW7       30.22F WCI  13
CHARITON *     CLOUDY    25  21  86 W7        30.22S WCI  17
DES MOINES     CLEAR     22  17  81 NW3       30.23R
GRINNELL*      PTCLDY    21  19  93 W5        30.21S WCI  15
KNOXVILLE *    CLOUDY    25  21  86 W9        30.21S WCI  15
MARSHALLTOWN   CLEAR     19  16  88 W10       30.19S WCI   7
PELLA *        CLOUDY    25  21  86 NW7       30.23F WCI  17
PERRY *          N/A     18  16  93 W7        30.22S WCI   8
$$

IAZ004>006-015-016-023>025-035-036-280400-
   NORTH CENTRAL IOWA

CITY           SKY/WX    TMP DP  RH WIND       PRES   REMARKS
ALGONA *       CLEAR     12   9  85 W13       30.17R WCI  -3
CLARION *      CLEAR     12  10  92 SW8       30.18S WCI   1
ESTHERVILLE    CLEAR      9   6  88 SW5       30.15S WCI   1
FORT DODGE *   CLEAR     12   7  79 SW5       30.19F WCI   4
MASON CITY     CLEAR     15  10  80 W12       30.16S WCI   2
FOREST CITY *  CLEAR     14   9  79 SW6       30.15R WCI   5
IOWA FALLS *     N/A     18  14  86 W10       30.19F WCI   6
$$

IAZ007>011-017>019-026>030-037>042-050>054-066-280400-
   NORTHEAST IOWA

CITY           SKY/WX    TMP DP  RH WIND       PRES   REMARKS
CEDAR RAPIDS   CLEAR     20  16  84 NW10      30.18S WCI   9
CHARLES CITY * CLEAR     16  12  86 W7        30.16F WCI   6
CLINTON *      CLOUDY    27  19  74 W13       30.19S WCI  16
DECORAH *      CLEAR     16  10  79 W8        30.14S WCI   5
DUBUQUE        PTCLDY    21  17  84 NW12      30.14S WCI   9
MONTICELLO *   PTCLDY    23  19  86 NW9       30.17S WCI  13
OELWEIN *      CLEAR     18  14  86 W10G18    30.17S WCI   6
WATERLOO       CLEAR     18  14  84 W8        30.19S WCI   8
$$

IAZ064-065-067-068-078-280400-
   EAST CENTRAL IOWA

CITY           SKY/WX    TMP DP  RH WIND       PRES   REMARKS
DAVENPORT      CLOUDY    27  20  75 NW12      30.18S WCI  17
IOWA CITY      CLEAR     24  20  84 W7        30.22R WCI  16
MT. PLEASANT * CLOUDY    28  21  74 W9        30.22R WCI  20
MUSCATINE *    CLOUDY    28  21  74 NW16      30.21S WCI  17
QUAD CITIES    MOCLDY    28  20  71 W12       30.18S WCI  18
$$

IAZ062-063-075>077-085>089-095>099-280400-
   SOUTHEAST IOWA

CITY           SKY/WX    TMP DP  RH WIND       PRES   REMARKS
BURLINGTON     CLOUDY    29  23  78 NW9       30.21R WCI  20
FAIRFIELD *    CLOUDY    28  21  74 NW12      30.21S WCI  18
FORT MADISON * CLOUDY    30  25  80 NW10      30.22R WCI  21
KEOKUK *       CLOUDY    30  23  74 NW6       30.22R WCI  24
OSKALOOSA *    CLOUDY    26  21  82 W14       30.22S WCI  14
CENTERVILLE *  CLOUDY    27  23  86 W12       30.24R WCI  16
OTTUMWA        CLOUDY    27  20  75 W13       30.22R WCI  16
WASHINGTON *   CLOUDY    28  25  86 W12G17    30.21S WCI  18
$$

ABBREVIATIONS USED IN REMARKS
   TC - TEMPERATURES IN CELSIUS
  WCI - WIND CHILL INDEX
   HX - HEAT INDEX
  VSB - VISIBILITY
$$




USA.gov is the U.S. government's official web portal to all federal, state and local government web resources and services.